Location: Archemont
(49.1579°N, 1.7598°E)
Time: 12:15:36
(UTC+00:00)

RESURS DK-1 - Pass Details

Date: 03 February 2023
Orbit: 549 x 557 km, 69.9° (Epoch: 25 March)

Event Time Altitude Azimuth Distance (km) Brightness Sun altitude
Rises 18:10:03 0° 332° (NNW) 2,741 6.1 -12.9°
Reaches altitude 10° 18:12:17 10° 336° (NNW) 1,844 5.2 -13.2°
Maximum altitude 18:16:22 60° 57° (ENE) 640 2.3 -13.9°
Drops below altitude 10° 18:20:25 10° 138° (SE) 1,837 4.7 -14.6°
Enters shadow 18:20:50 - 139° (SE) 2,001 4.9 -14.6°
